FRS119N EDDH-EDXW

Flight info

Callsign FRS119N
Flight time 1h 20m
Altitude
Route
Aircraft C172

Departure

Time 2026-04-24 20:33
Airport Hamburg Helmut Schmidt Airport (EDDH)

Arrival

Time 2026-04-24 21:53
Airport Westerland Sylt Airport (EDXW)
Time Latitude Longitude Altitude Speed Heading
2026-04-24 20:25 53.62698 9.98732 42 ft 0 kts 62°
2026-04-24 20:29 53.62702 9.98736 42 ft 3 kts
2026-04-24 20:29 53.62705 9.98711 42 ft 1 kts 229°
2026-04-24 20:29 53.62695 9.98691 42 ft 2 kts 236°
2026-04-24 20:30 53.62718 9.98641 42 ft 11 kts 352°
2026-04-24 20:30 53.62793 9.98757 42 ft 20 kts 50°
2026-04-24 20:30 53.62890 9.98957 42 ft 24 kts 52°
2026-04-24 20:30 53.62995 9.99168 42 ft 23 kts 51°
2026-04-24 20:31 53.63090 9.99291 42 ft 10 kts 20°
2026-04-24 20:31 53.63096 9.99294 42 ft 0 kts 22°
2026-04-24 20:31 53.63128 9.99310 42 ft 12 kts
2026-04-24 20:32 53.63246 9.99352 42 ft 17 kts
2026-04-24 20:32 53.63365 9.99316 41 ft 7 kts 332°
2026-04-24 20:32 53.63454 9.99235 42 ft 39 kts 335°
2026-04-24 20:32 53.63818 9.98941 113 ft 66 kts 336°
2026-04-24 20:33 53.64270 9.98901 299 ft 79 kts 10°
2026-04-24 20:33 53.64766 9.99274 626 ft 74 kts 24°
2026-04-24 20:33 53.65270 9.99806 746 ft 87 kts 23°
2026-04-24 20:33 53.65806 10.00332 953 ft 86 kts 12°
2026-04-24 20:34 53.66346 10.00723 1184 ft 86 kts
2026-04-24 20:34 53.66926 10.00758 1371 ft 82 kts 341°
2026-04-24 20:34 53.67433 10.00534 1639 ft 76 kts 342°
2026-04-24 20:34 53.67949 10.00385 1866 ft 73 kts 337°
2026-04-24 20:35 53.68479 10.00262 2050 ft 77 kts 347°
2026-04-24 20:35 53.69042 10.00331 2194 ft 89 kts
2026-04-24 20:35 53.69622 10.00751 2282 ft 87 kts
2026-04-24 20:35 53.70195 10.01070 2333 ft 91 kts
2026-04-24 20:36 53.70783 10.01374 2429 ft 86 kts
2026-04-24 20:36 53.71380 10.01606 2407 ft 87 kts
2026-04-24 20:36 53.71972 10.01785 2336 ft 88 kts
2026-04-24 20:36 53.72579 10.01905 2283 ft 86 kts 357°
2026-04-24 20:37 53.73150 10.02042 2285 ft 86 kts
2026-04-24 20:37 53.73704 10.02228 2338 ft 77 kts
2026-04-24 20:37 53.74237 10.02297 2351 ft 72 kts 353°
2026-04-24 20:37 53.74747 10.02334 2324 ft 77 kts 354°
2026-04-24 20:38 53.75272 10.02312 2349 ft 75 kts 347°
2026-04-24 20:38 53.75791 10.02212 2371 ft 76 kts 351°
2026-04-24 20:38 53.76322 10.02183 2382 ft 77 kts 351°
2026-04-24 20:38 53.76860 10.02167 2402 ft 78 kts 352°
2026-04-24 20:39 53.77409 10.02280 2417 ft 79 kts
2026-04-24 20:39 53.77943 10.02441 2426 ft 79 kts
2026-04-24 20:39 53.78495 10.02598 2424 ft 79 kts
2026-04-24 20:39 53.79021 10.02758 2453 ft 76 kts 360°
2026-04-24 20:40 53.79574 10.02891 2407 ft 81 kts 358°
2026-04-24 20:40 53.80128 10.02945 2402 ft 79 kts 352°
2026-04-24 20:40 53.80677 10.02896 2372 ft 78 kts 347°
2026-04-24 20:40 53.81212 10.02693 2356 ft 78 kts 340°
2026-04-24 20:41 53.81715 10.02383 2382 ft 76 kts 333°
2026-04-24 20:41 53.82118 10.01826 2395 ft 76 kts 309°
2026-04-24 20:41 53.82387 10.01007 2361 ft 80 kts 302°
2026-04-24 20:41 53.82652 10.00110 2233 ft 89 kts 302°
2026-04-24 20:42 53.82933 9.99176 2187 ft 88 kts 302°
2026-04-24 20:42 53.83263 9.98357 2155 ft 85 kts 314°
2026-04-24 20:42 53.83642 9.97612 2138 ft 82 kts 312°
2026-04-24 20:42 53.84001 9.96897 2243 ft 76 kts 313°
2026-04-24 20:43 53.84338 9.96180 2372 ft 80 kts 310°
2026-04-24 20:43 53.84651 9.95386 2486 ft 83 kts 309°
2026-04-24 20:43 53.84935 9.94536 2633 ft 84 kts 302°
2026-04-24 20:43 53.85146 9.93654 2842 ft 78 kts 300°
2026-04-24 20:44 53.85343 9.92828 3055 ft 70 kts 303°
2026-04-24 20:44 53.85548 9.92079 3202 ft 74 kts 303°
2026-04-24 20:44 53.85724 9.91259 3391 ft 72 kts 298°
2026-04-24 20:44 53.85872 9.90444 3539 ft 75 kts 297°
2026-04-24 20:45 53.85979 9.89565 3664 ft 81 kts 289°
2026-04-24 20:45 53.86044 9.88603 3840 ft 79 kts 286°
2026-04-24 20:45 53.86076 9.87658 3866 ft 78 kts 284°
2026-04-24 20:45 53.86088 9.86729 3992 ft 77 kts 286°
2026-04-24 20:46 53.86136 9.85840 4139 ft 76 kts 297°
2026-04-24 20:46 53.86343 9.85044 4307 ft 72 kts 304°
2026-04-24 20:46 53.86591 9.84238 4395 ft 78 kts 304°
2026-04-24 20:46 53.86848 9.83405 4474 ft 85 kts 304°
2026-04-24 20:47 53.87097 9.82486 4465 ft 89 kts 300°
2026-04-24 20:47 53.87356 9.81544 4467 ft 86 kts 301°
2026-04-24 20:47 53.87625 9.80676 4479 ft 81 kts 313°
2026-04-24 20:47 53.88014 9.79960 4464 ft 82 kts 317°
2026-04-24 20:48 53.88428 9.79288 4465 ft 82 kts 318°
2026-04-24 20:48 53.88847 9.78637 4456 ft 83 kts 324°
2026-04-24 20:48 53.89337 9.78124 4470 ft 81 kts 329°
2026-04-24 20:48 53.89822 9.77629 4473 ft 80 kts 326°
2026-04-24 20:49 53.90302 9.77121 4455 ft 82 kts 326°
2026-04-24 20:49 53.90761 9.76529 4416 ft 86 kts 323°
2026-04-24 20:49 53.91235 9.75931 4410 ft 84 kts 326°
2026-04-24 20:49 53.91743 9.75400 4373 ft 85 kts 328°
2026-04-24 20:50 53.92227 9.74857 4338 ft 87 kts 326°
2026-04-24 20:50 53.92773 9.74380 4319 ft 85 kts 337°
2026-04-24 20:50 53.93297 9.74072 4370 ft 81 kts 339°
2026-04-24 20:50 53.93830 9.73756 4359 ft 82 kts 337°
2026-04-24 20:51 53.94369 9.73432 4363 ft 81 kts 338°
2026-04-24 20:51 53.94906 9.73131 4363 ft 83 kts 339°
2026-04-24 20:51 53.95437 9.72818 4412 ft 80 kts 337°
2026-04-24 20:51 53.95971 9.72497 4387 ft 82 kts 336°
2026-04-24 20:52 53.96492 9.72128 4386 ft 81 kts 333°
2026-04-24 20:52 53.96981 9.71643 4363 ft 82 kts 320°
2026-04-24 20:52 53.97364 9.70936 4397 ft 80 kts 314°
2026-04-24 20:52 53.97737 9.70196 4377 ft 83 kts 313°
2026-04-24 20:53 53.98052 9.69414 4454 ft 80 kts 307°
2026-04-24 20:53 53.98322 9.68569 4474 ft 82 kts 301°
2026-04-24 20:53 53.98532 9.67664 4476 ft 84 kts 302°
2026-04-24 20:53 53.98819 9.66816 4524 ft 82 kts 305°
2026-04-24 20:54 53.99161 9.65938 4371 ft 95 kts 311°
2026-04-24 20:54 53.99515 9.65094 4429 ft 89 kts 309°
2026-04-24 20:54 53.99837 9.64229 4484 ft 85 kts 307°
2026-04-24 20:54 54.00139 9.63365 4496 ft 86 kts 305°
2026-04-24 20:55 54.00468 9.62512 4508 ft 85 kts 311°
2026-04-24 20:55 54.00877 9.61787 4450 ft 88 kts 319°
2026-04-24 20:55 54.01324 9.61102 4459 ft 84 kts 319°
2026-04-24 20:55 54.01771 9.60461 4439 ft 85 kts 321°
2026-04-24 20:56 54.02222 9.59820 4428 ft 83 kts 324°
2026-04-24 20:56 54.02695 9.59274 4425 ft 83 kts 327°
2026-04-24 20:56 54.03184 9.58753 4418 ft 82 kts 327°
2026-04-24 20:56 54.03683 9.58302 4407 ft 83 kts 333°
2026-04-24 20:57 54.04197 9.57875 4415 ft 82 kts 333°
2026-04-24 20:57 54.04719 9.57493 4422 ft 82 kts 337°
2026-04-24 20:57 54.05274 9.57226 4415 ft 83 kts 343°
2026-04-24 20:57 54.05848 9.57082 4398 ft 85 kts 349°
2026-04-24 20:58 54.06428 9.56973 4380 ft 85 kts 345°
2026-04-24 20:58 54.07015 9.56683 4320 ft 87 kts 340°
2026-04-24 20:58 54.07572 9.56418 4371 ft 79 kts 337°
2026-04-24 20:58 54.08096 9.56032 4321 ft 85 kts 329°
2026-04-24 20:59 54.08584 9.55515 4367 ft 79 kts 326°
2026-04-24 20:59 54.09040 9.54946 4344 ft 82 kts 324°
2026-04-24 20:59 54.09487 9.54495 4465 ft 78 kts 330°
2026-04-24 20:59 54.09975 9.54047 4467 ft 83 kts 328°
2026-04-24 21:00 54.10424 9.53419 4503 ft 83 kts 321°
2026-04-24 21:00 54.10861 9.52779 4545 ft 83 kts 321°
2026-04-24 21:00 54.11311 9.52144 4572 ft 85 kts 322°
2026-04-24 21:00 54.11778 9.51513 4603 ft 86 kts 323°
2026-04-24 21:01 54.12277 9.50876 4542 ft 93 kts 324°
2026-04-24 21:01 54.12811 9.50232 4481 ft 96 kts 325°
2026-04-24 21:01 54.13355 9.49609 4478 ft 93 kts 326°
2026-04-24 21:01 54.13897 9.49020 4475 ft 92 kts 327°
2026-04-24 21:02 54.14429 9.48472 4469 ft 89 kts 328°
2026-04-24 21:02 54.14963 9.47952 4467 ft 88 kts 329°
2026-04-24 21:02 54.15498 9.47459 4463 ft 87 kts 330°
2026-04-24 21:02 54.16035 9.46990 4463 ft 86 kts 331°
2026-04-24 21:03 54.16568 9.46549 4461 ft 85 kts 332°
2026-04-24 21:03 54.17103 9.46133 4458 ft 85 kts 333°
2026-04-24 21:03 54.17645 9.45739 4457 ft 84 kts 334°
2026-04-24 21:03 54.18190 9.45366 4461 ft 84 kts 336°
2026-04-24 21:04 54.18738 9.45015 4458 ft 84 kts 336°
2026-04-24 21:04 54.19286 9.44690 4460 ft 84 kts 338°
2026-04-24 21:04 54.19844 9.44382 4457 ft 84 kts 339°
2026-04-24 21:04 54.20403 9.44098 4456 ft 84 kts 340°
2026-04-24 21:05 54.20968 9.43835 4458 ft 84 kts 341°
2026-04-24 21:05 54.21533 9.43596 4458 ft 84 kts 341°
2026-04-24 21:05 54.22104 9.43377 4457 ft 84 kts 342°
2026-04-24 21:05 54.22679 9.43179 4461 ft 84 kts 343°
2026-04-24 21:06 54.23260 9.43002 4458 ft 85 kts 344°
2026-04-24 21:06 54.23847 9.42845 4457 ft 86 kts 346°
2026-04-24 21:06 54.24440 9.42710 4460 ft 87 kts 347°
2026-04-24 21:06 54.25035 9.42597 4463 ft 87 kts 348°
2026-04-24 21:07 54.25642 9.42504 4466 ft 88 kts 348°
2026-04-24 21:07 54.26254 9.42434 4461 ft 88 kts 349°
2026-04-24 21:07 54.26851 9.42286 4451 ft 85 kts 325°
2026-04-24 21:07 54.27259 9.41577 4473 ft 84 kts 318°
2026-04-24 21:08 54.27670 9.40871 4474 ft 84 kts 317°
2026-04-24 21:08 54.28080 9.40157 4475 ft 84 kts 317°
2026-04-24 21:08 54.28492 9.39440 4475 ft 84 kts 316°
2026-04-24 21:08 54.28903 9.38722 4475 ft 84 kts 316°
2026-04-24 21:09 54.29309 9.38013 4461 ft 85 kts 316°
2026-04-24 21:09 54.29722 9.37293 4480 ft 85 kts 316°
2026-04-24 21:09 54.30134 9.36572 4479 ft 85 kts 316°
2026-04-24 21:09 54.30547 9.35850 4479 ft 85 kts 316°
2026-04-24 21:10 54.30959 9.35126 4483 ft 85 kts 316°
2026-04-24 21:10 54.31370 9.34399 4483 ft 85 kts 316°
2026-04-24 21:10 54.31780 9.33673 4476 ft 85 kts 316°
2026-04-24 21:10 54.32189 9.32947 4483 ft 85 kts 316°
2026-04-24 21:11 54.32598 9.32221 4480 ft 86 kts 316°
2026-04-24 21:11 54.33011 9.31488 4476 ft 85 kts 316°
2026-04-24 21:11 54.33421 9.30758 4479 ft 85 kts 316°
2026-04-24 21:11 54.33834 9.30022 4479 ft 85 kts 316°
2026-04-24 21:12 54.34243 9.29292 4479 ft 85 kts 316°
2026-04-24 21:12 54.34515 9.28803 4479 ft 85 kts 316°
2026-04-24 21:12 54.35062 9.27820 4479 ft 85 kts 316°
2026-04-24 21:12 54.35470 9.27085 4478 ft 85 kts 316°
2026-04-24 21:13 54.35879 9.26346 4465 ft 85 kts 316°
2026-04-24 21:13 54.36283 9.25620 4475 ft 86 kts 316°
2026-04-24 21:13 54.36694 9.24879 4475 ft 86 kts 316°
2026-04-24 21:13 54.37104 9.24138 4474 ft 86 kts 316°
2026-04-24 21:14 54.37513 9.23398 4480 ft 85 kts 316°
2026-04-24 21:14 54.37921 9.22658 4480 ft 85 kts 316°
2026-04-24 21:14 54.38329 9.21917 4479 ft 85 kts 316°
2026-04-24 21:14 54.38737 9.21177 4487 ft 85 kts 316°
2026-04-24 21:15 54.39144 9.20438 4474 ft 85 kts 316°
2026-04-24 21:15 54.39546 9.19709 4478 ft 85 kts 315°
2026-04-24 21:15 54.39952 9.18970 4478 ft 85 kts 315°
2026-04-24 21:15 54.40358 9.18233 4490 ft 85 kts 316°
2026-04-24 21:16 54.40765 9.17492 4482 ft 85 kts 316°
2026-04-24 21:16 54.41170 9.16753 4482 ft 85 kts 316°
2026-04-24 21:16 54.41575 9.16014 4475 ft 84 kts 316°
2026-04-24 21:16 54.41975 9.15279 4480 ft 84 kts 315°
2026-04-24 21:17 54.42375 9.14546 4477 ft 84 kts 315°
2026-04-24 21:17 54.42767 9.13828 4477 ft 84 kts 315°
2026-04-24 21:17 54.43168 9.13093 4477 ft 83 kts 315°
2026-04-24 21:17 54.43432 9.12610 4477 ft 83 kts 315°
2026-04-24 21:18 54.43957 9.11646 4469 ft 83 kts 315°
2026-04-24 21:18 54.44352 9.10926 4462 ft 83 kts 315°
2026-04-24 21:18 54.44745 9.10210 4463 ft 83 kts 315°
2026-04-24 21:18 54.45140 9.09487 4467 ft 83 kts 315°
2026-04-24 21:19 54.45536 9.08762 4469 ft 83 kts 315°
2026-04-24 21:19 54.45930 9.08041 4469 ft 83 kts 315°
2026-04-24 21:19 54.46325 9.07316 4468 ft 83 kts 315°
2026-04-24 21:19 54.46712 9.06603 4468 ft 83 kts 315°
2026-04-24 21:20 54.47500 9.05152 4468 ft 84 kts 315°
2026-04-24 21:20 54.47894 9.04421 4464 ft 83 kts 315°
2026-04-24 21:20 54.48289 9.03690 4468 ft 83 kts 315°
2026-04-24 21:21 54.48683 9.02958 4468 ft 83 kts 315°
2026-04-24 21:21 54.49077 9.02229 4467 ft 83 kts 315°
2026-04-24 21:21 54.49470 9.01500 4476 ft 83 kts 315°
2026-04-24 21:21 54.49859 9.00777 4469 ft 83 kts 315°
2026-04-24 21:22 54.50250 9.00049 4475 ft 83 kts 315°
2026-04-24 21:22 54.50641 8.99316 4472 ft 83 kts 315°
2026-04-24 21:22 54.51031 8.98585 4477 ft 83 kts 315°
2026-04-24 21:22 54.51420 8.97853 4477 ft 83 kts 315°
2026-04-24 21:23 54.51810 8.97120 4477 ft 83 kts 315°
2026-04-24 21:23 54.52199 8.96387 4477 ft 83 kts 315°
2026-04-24 21:23 54.52589 8.95652 4459 ft 83 kts 315°
2026-04-24 21:23 54.52974 8.94926 4469 ft 83 kts 314°
2026-04-24 21:24 54.53363 8.94190 4471 ft 83 kts 314°
2026-04-24 21:24 54.53751 8.93454 4471 ft 83 kts 314°
2026-04-24 21:24 54.54140 8.92715 4469 ft 83 kts 315°
2026-04-24 21:24 54.54547 8.91944 4367 ft 91 kts 315°
2026-04-24 21:25 54.54982 8.91121 4253 ft 95 kts 314°
2026-04-24 21:25 54.55432 8.90272 4128 ft 97 kts 315°
2026-04-24 21:25 54.55895 8.89402 4004 ft 99 kts 315°
2026-04-24 21:25 54.56355 8.88538 3879 ft 99 kts 314°
2026-04-24 21:26 54.56824 8.87667 3753 ft 100 kts 314°
2026-04-24 21:26 54.57298 8.86788 3629 ft 100 kts 314°
2026-04-24 21:26 54.57773 8.85914 3503 ft 100 kts 314°
2026-04-24 21:26 54.58246 8.85042 3377 ft 100 kts 314°
2026-04-24 21:27 54.58719 8.84165 3259 ft 100 kts 314°
2026-04-24 21:27 54.59188 8.83287 3132 ft 100 kts 314°
2026-04-24 21:27 54.59655 8.82403 3006 ft 100 kts 314°
2026-04-24 21:27 54.60121 8.81511 2879 ft 100 kts 314°
2026-04-24 21:28 54.60579 8.80628 2755 ft 100 kts 314°
2026-04-24 21:28 54.60835 8.79544 2589 ft 120 kts 252°
2026-04-24 21:28 54.60453 8.79468 1394 ft 146 kts 133°
2026-04-24 21:28 54.60433 8.79837 683 ft 124 kts 336°
2026-04-24 21:29 54.60958 8.79321 1349 ft 65 kts 308°
2026-04-24 21:29 54.60807 8.78231 693 ft 143 kts 230°
2026-04-24 21:29 54.60082 8.77555 1322 ft 96 kts 211°
2026-04-24 21:29 54.59379 8.77318 1387 ft 108 kts 204°
2026-04-24 21:30 54.58663 8.77018 1543 ft 107 kts 205°
2026-04-24 21:30 54.57904 8.76831 1644 ft 115 kts 199°
2026-04-24 21:30 54.57149 8.76526 1808 ft 105 kts 219°
2026-04-24 21:30 54.56964 8.75740 1984 ft 63 kts 320°
2026-04-24 21:31 54.57292 8.75290 2152 ft 62 kts 320°
2026-04-24 21:31 54.57646 8.74804 2244 ft 69 kts 322°
2026-04-24 21:31 54.58028 8.74279 2334 ft 74 kts 322°
2026-04-24 21:31 54.58449 8.73701 2348 ft 79 kts 323°
2026-04-24 21:32 54.58875 8.73115 2347 ft 78 kts 323°
2026-04-24 21:32 54.59333 8.72489 2180 ft 89 kts 323°
2026-04-24 21:32 54.59820 8.71830 2085 ft 90 kts 323°
2026-04-24 21:32 54.60321 8.71157 2004 ft 91 kts 322°
2026-04-24 21:33 54.60807 8.70505 2001 ft 86 kts 322°
2026-04-24 21:33 54.61118 8.70087 1991 ft 85 kts 322°
2026-04-24 21:33 54.61730 8.69269 1993 ft 83 kts 322°
2026-04-24 21:33 54.62262 8.68900 1996 ft 84 kts 340°
2026-04-24 21:34 54.62761 8.68450 1989 ft 82 kts 316°
2026-04-24 21:34 54.63130 8.67703 1995 ft 82 kts 308°
2026-04-24 21:34 54.63419 8.66846 1995 ft 82 kts 306°
2026-04-24 21:34 54.63706 8.65989 1995 ft 83 kts 306°
2026-04-24 21:35 54.63991 8.65126 1996 ft 83 kts 305°
2026-04-24 21:35 54.64271 8.64260 1998 ft 82 kts 306°
2026-04-24 21:35 54.64540 8.63363 1928 ft 89 kts 305°
2026-04-24 21:35 54.64838 8.62399 1835 ft 93 kts 305°
2026-04-24 21:36 54.65137 8.61446 1805 ft 89 kts 305°
2026-04-24 21:36 54.65427 8.60519 1804 ft 86 kts 305°
2026-04-24 21:36 54.65708 8.59612 1800 ft 85 kts 302°
2026-04-24 21:36 54.65662 8.58531 1800 ft 94 kts 271°
2026-04-24 21:37 54.65537 8.57428 1804 ft 94 kts 272°
2026-04-24 21:37 54.65391 8.56332 1807 ft 94 kts 272°
2026-04-24 21:37 54.65241 8.55245 1806 ft 93 kts 272°
2026-04-24 21:37 54.65091 8.54159 1804 ft 93 kts 272°
2026-04-24 21:38 54.64942 8.53080 1798 ft 94 kts 272°
2026-04-24 21:38 54.64794 8.51976 1768 ft 97 kts 272°
2026-04-24 21:38 54.64704 8.50825 1697 ft 94 kts 288°
2026-04-24 21:38 54.64815 8.49710 1626 ft 96 kts 289°
2026-04-24 21:39 54.64931 8.48572 1535 ft 97 kts 290°
2026-04-24 21:39 54.65047 8.47436 1510 ft 94 kts 289°
2026-04-24 21:39 54.65157 8.46337 1504 ft 91 kts 290°
2026-04-24 21:39 54.65258 8.45289 1501 ft 89 kts 290°
2026-04-24 21:40 54.65349 8.44250 1500 ft 87 kts 290°
2026-04-24 21:40 54.65434 8.43234 1497 ft 85 kts 289°
2026-04-24 21:40 54.65518 8.42237 1510 ft 83 kts 289°
2026-04-24 21:40 54.65606 8.41251 1511 ft 83 kts 289°
2026-04-24 21:41 54.65693 8.40264 1507 ft 83 kts 289°
2026-04-24 21:41 54.65774 8.39277 1510 ft 83 kts 290°
2026-04-24 21:41 54.65847 8.38275 1513 ft 84 kts 289°
2026-04-24 21:41 54.65926 8.37264 1516 ft 85 kts 289°
2026-04-24 21:42 54.66109 8.36339 1520 ft 82 kts 301°
2026-04-24 21:42 54.66428 8.35553 1523 ft 80 kts 318°
2026-04-24 21:42 54.66812 8.34849 1525 ft 80 kts 319°
2026-04-24 21:42 54.67221 8.34184 1521 ft 81 kts 319°
2026-04-24 21:43 54.67631 8.33511 1519 ft 81 kts 319°
2026-04-24 21:43 54.68042 8.32834 1517 ft 82 kts 319°
2026-04-24 21:43 54.68457 8.32151 1518 ft 83 kts 319°
2026-04-24 21:43 54.68876 8.31457 1515 ft 84 kts 319°
2026-04-24 21:44 54.69318 8.30852 1516 ft 83 kts 339°
2026-04-24 21:44 54.69909 8.31005 1516 ft 89 kts
2026-04-24 21:44 54.70503 8.31324 1520 ft 89 kts
2026-04-24 21:44 54.71092 8.31647 1520 ft 88 kts
2026-04-24 21:45 54.71674 8.31962 1514 ft 87 kts
2026-04-24 21:45 54.72248 8.32278 1515 ft 87 kts
2026-04-24 21:45 54.72833 8.32592 1517 ft 88 kts
2026-04-24 21:45 54.73428 8.32831 1519 ft 88 kts
2026-04-24 21:46 54.74018 8.33052 1528 ft 84 kts 353°
2026-04-24 21:46 54.74548 8.32835 1535 ft 80 kts 338°
2026-04-24 21:46 54.75095 8.32592 1513 ft 83 kts 340°
2026-04-24 21:46 54.75668 8.32426 1505 ft 86 kts 352°
2026-04-24 21:47 54.76264 8.32495 1510 ft 85 kts 354°
2026-04-24 21:47 54.76656 8.32513 1480 ft 86 kts 351°
2026-04-24 21:47 54.77462 8.32469 1416 ft 85 kts 348°
2026-04-24 21:47 54.78052 8.32378 1358 ft 85 kts 347°
2026-04-24 21:48 54.78636 8.32318 1316 ft 86 kts 349°
2026-04-24 21:48 54.79225 8.32261 1283 ft 82 kts 349°
2026-04-24 21:48 54.79792 8.32179 1241 ft 81 kts 346°
2026-04-24 21:48 54.80343 8.32148 1223 ft 80 kts 350°
2026-04-24 21:49 54.80892 8.32156 1204 ft 79 kts 351°
2026-04-24 21:49 54.81405 8.32170 1288 ft 71 kts 351°
2026-04-24 21:49 54.81894 8.32144 1312 ft 70 kts 348°
2026-04-24 21:49 54.82372 8.32084 1282 ft 68 kts 345°
2026-04-24 21:50 54.82816 8.32053 1245 ft 63 kts 345°
2026-04-24 21:50 54.83255 8.32013 1162 ft 65 kts 347°
2026-04-24 21:50 54.83697 8.32066 1133 ft 65 kts 359°
2026-04-24 21:50 54.84112 8.32491 1088 ft 73 kts 23°
2026-04-24 21:51 54.84482 8.33133 1001 ft 75 kts 30°
2026-04-24 21:51 54.84842 8.33815 885 ft 78 kts 30°
2026-04-24 21:51 54.85217 8.34436 814 ft 74 kts 24°
2026-04-24 21:51 54.85591 8.35045 774 ft 73 kts 23°
2026-04-24 21:52 54.85926 8.35683 809 ft 69 kts 29°
2026-04-24 21:52 54.86270 8.36308 807 ft 73 kts 29°
2026-04-24 21:52 54.86635 8.36929 808 ft 74 kts 25°
2026-04-24 21:52 54.87022 8.37521 809 ft 73 kts 25°
2026-04-24 21:53 54.87400 8.38071 801 ft 68 kts 17°
2026-04-24 21:53 54.87819 8.38369 723 ft 58 kts 343°
2026-04-24 21:53 54.88142 8.38022 594 ft 56 kts 317°
2026-04-24 21:53 54.88409 8.37661 512 ft 44 kts 322°
2026-04-24 21:54 54.88667 8.37356 433 ft 47 kts 327°
2026-04-24 21:54 54.88936 8.36970 392 ft 50 kts 316°
2026-04-24 21:54 54.89227 8.36645 340 ft 51 kts 321°
2026-04-24 21:54 54.89484 8.36211 277 ft 57 kts 316°
2026-04-24 21:55 54.89752 8.35841 294 ft 53 kts 336°
2026-04-24 21:55 54.90091 8.35552 214 ft 53 kts 328°
2026-04-24 21:55 54.90387 8.35205 69 ft 46 kts 324°
2026-04-24 21:55 54.90606 8.34933 31 ft 31 kts 323°
2026-04-24 21:56 54.90771 8.34725 30 ft 25 kts 324°
2026-04-24 21:56 54.90903 8.34557 31 ft 21 kts 325°
2026-04-24 21:56 54.91035 8.34395 32 ft 27 kts 325°
2026-04-24 21:56 54.91196 8.34191 32 ft 29 kts 323°
2026-04-24 21:57 54.91311 8.34007 30 ft 12 kts 258°
2026-04-24 21:57 54.91256 8.33820 29 ft 25 kts 233°
2026-04-24 21:57 54.91141 8.33510 27 ft 36 kts 239°
2026-04-24 21:57 54.91055 8.33230 28 ft 14 kts 268°
2026-04-24 21:58 54.91103 8.33178 29 ft 9 kts
2026-04-24 21:58 54.91190 8.33178 28 ft 17 kts 356°
2026-04-24 21:58 54.91301 8.33173 24 ft 14 kts 315°
2026-04-24 21:58 54.91311 8.33108 24 ft 0 kts 268°